Location: �chenoz-la-M�line
(47.6009°N, 6.1354°E)
Time: 12:53:49
(UTC+00:00)

Cosmos 2333 Rocket - Pass Details

Date: 27 January 2021
Orbit: 838 x 863 km, 70.8° (Epoch: 02 March)

Event Time Altitude Azimuth Distance (km) Brightness Sun altitude
Exits shadow 05:46:36 12° 321° (NW) 2,359 4.1 -13.7°
Maximum altitude 05:47:26 12° 330° (NNW) 2,339 4.1 -13.6°
Drops below altitude 10° 05:49:30 10° 352° (N) 2,479 4.4 -13.3°
Sets 05:53:51 0° 23° (NNE) 3,424 5.5 -12.5°
